This is the latest recevied weather packets stored in our database for station/object N0QWM. If no packets are shown the sender has not sent any weather packets the latest 10 day(s).
| Time | Temp. | Humidity | Pressure | Rain* | Wind** | Luminosity | Snow |
|---|---|---|---|---|---|---|---|
| 1778278907 | 17.78° C | 79% | 1019.3 hPa | 0 mm | - | 62 W/m² | - |
| 1778278603 | 17.78° C | 79% | 1019.2 hPa | 0 mm | - | 64 W/m² | - |
| 1778278298 | 17.78° C | 78% | 1019.3 hPa | 0 mm | - | 67 W/m² | - |
| 1778277996 | 17.78° C | 80% | 1019.5 hPa | 0 mm | - | 60 W/m² | - |
| 1778277692 | 17.78° C | 80% | 1019.3 hPa | 0 mm | - | 56 W/m² | - |
| 1778277388 | 17.78° C | 80% | 1019.3 hPa | 0 mm | - | 49 W/m² | - |
| 1778277085 | 18.33° C | 78% | 1019.2 hPa | 0 mm | - | 50 W/m² | - |
| 1778276782 | 18.33° C | 80% | 1019.4 hPa | 0 mm | - | 63 W/m² | - |
| 1778276479 | 18.33° C | 80% | 1019.1 hPa | 0 mm | - | 72 W/m² | - |
| 1778276176 | 18.33° C | 78% | 1019.6 hPa | 0 mm | - | 78 W/m² | - |
| 1778275872 | 18.33° C | 76% | 1019.4 hPa | 0 mm | - | 84 W/m² | - |
| 1778275569 | 18.33° C | 79% | 1019.4 hPa | 0 mm | - | 78 W/m² | - |
| 1778275265 | 18.33° C | 79% | 1019.6 hPa | 0 mm | - | 83 W/m² | - |
| 1778274961 | 18.33° C | 79% | 1019.5 hPa | 0 mm | - | 75 W/m² | - |
| 1778274657 | 18.33° C | 76% | 1019.6 hPa | 0 mm | - | 85 W/m² | - |
| 1778274354 | 18.33° C | 77% | 1019.5 hPa | 0 mm | - | 92 W/m² | - |
| 1778274051 | 18.33° C | 75% | 1019.5 hPa | 0 mm | - | 93 W/m² | - |
| 1778273749 | 18.33° C | 77% | 1019.6 hPa | 0 mm | - | 98 W/m² | - |
| 1778273445 | 18.89° C | 75% | 1019.9 hPa | 0 mm | - | 91 W/m² | - |
| 1778273141 | 18.89° C | 76% | 1020 hPa | 0 mm | - | 90 W/m² | - |
| 1778272837 | 18.33° C | 78% | 1019.8 hPa | 0 mm | - | 95 W/m² | - |
| 1778272534 | 18.33° C | 78% | 1019.9 hPa | 0 mm | - | 101 W/m² | - |
| 1778272229 | 18.33° C | 79% | 1019.4 hPa | 0 mm | - | 110 W/m² | - |
| 1778271926 | 18.33° C | 77% | 1019.7 hPa | 0 mm | - | 117 W/m² | - |
| 1778271624 | 18.89° C | 74% | 1019.6 hPa | 0 mm | - | 121 W/m² | - |
* Rain latest hour (hover to see other rain measurements)
** Current wind speed in m/s (hover to see current wind gust speed)